Location: Shenandoah County Park
(38.9356°N, 78.4524°W)
Time: 05:25:07
(UTC-04:00)

Explorer 11/Cluster Stage 4 - Pass Details

Date: 29 February 2024
Orbit: 465 x 1220 km, 28.8° (Epoch: 12 April)

Event Time Altitude Azimuth Distance (km) Brightness Sun altitude
Rises 03:42:17 0° 264° (W) 4,121 - -36.2°
Reaches altitude 10° 03:45:46 10° 253° (WSW) 3,114 - -35.5°
Maximum altitude 03:51:56 26° 201° (SSW) 2,033 - -34.4°
Exits shadow 03:55:58 16° 157° (SSE) 2,435 9.1 -33.7°
Drops below altitude 10° 03:57:30 10° 147° (SSE) 2,785 9.5 -33.4°
Sets 04:00:26 0° 135° (SE) 3,610 10.3 -32.8°
